Location: Harrisburg
(40.2740°N, 76.8850°W)
Time: 04:50:05
(UTC-05:00)

Tiangong 1 - Visible Passes

Search period start: 25 February 2018 00:00
Search period end: 07 March 2018 00:00
Orbit: 245 x 266 km, 42.8° (Epoch: 25 February)

Date Brightness Start Highest point End Pass type
(mag) Time Alt. Az. Time Alt. Az. Time Alt. Az.
28 Feb 2.7 19:05:30 10° S 19:06:12 13° SSE 19:06:12 13° SSE visible
01 Mar 1.8 18:56:33 10° SSW 18:58:22 21° SSE 18:58:39 20° SE visible
02 Mar 1.3 18:47:36 10° SW 18:49:39 31° SSE 18:50:44 20° ESE visible
03 Mar 0.6 18:38:30 10° SW 18:40:41 48° SSE 18:42:25 14° E visible
04 Mar 0.2 18:29:11 10° WSW 18:31:26 73° SSE 18:33:40 10° ENE visible
04 Mar 4.2 20:03:05 10° WNW 20:03:12 11° WNW 20:03:12 11° WNW visible
05 Mar 3.5 19:53:35 10° WNW 19:54:10 15° WNW 19:54:10 15° WNW visible
06 Mar 2.8 19:43:46 10° WNW 19:44:49 22° NW 19:44:49 22° NW visible
